Regional Weather Roundup
Issued by NWS Wilmington, NC

Home | Current Version | Previous Version | Text Only | Print | Product List | Glossary On
Versions: 1 2 3 4 5 6 7 8 9 10 11 12 13 14 15 16 17 18 19 20 21 22 23 24 25 26 27 28 29 30 31 32 33 34 35 36 37 38 39 40 41 42 43 44 45 46 47 48 49 50
000
ASUS42 KILM 290513
RWRILM
RWRILM
REGIONAL HOURLY WEATHER ROUNDUP
NATIONAL WEATHER SERVICE WILMINGTON NC
100 AM EDT SUN MAY 29 2016

NOTE: "FAIR" INDICATES FEW OR NO CLOUDS BELOW 12,000 FEET WITH NO
SIGNIFICANT WEATHER AND/OR OBSTRUCTIONS TO VISIBILITY.

...............WFO WILMINGTON COUNTY WARNING AREA...............

......COASTAL NC AND SC COUNTIES......

CITY           SKY/WX    TMP DP  RH WIND       PRES   REMARKS
WILMINGTON     CLOUDY    74  72  93 E7        30.07F
N MYRTLE BEACH CLOUDY    73  71  93 NE8       30.04F
MYRTLE BEACH   CLOUDY    73  66  78 NE8       30.06S

......INLAND NC AND SC COUNTIES.......

CITY           SKY/WX    TMP DP  RH WIND       PRES   REMARKS
LUMBERTON      MOCLDY    73  69  87 NE8       30.08F
ELIZABETHTOWN  CLOUDY    71  71  99 CALM      30.09F
WHITEVILLE     CLOUDY    71  69  93 NE5       30.07F
FLORENCE       CLOUDY    72  69  90 N9        30.07F
DARLINGTON     CLOUDY    71  69  93 N8        30.09F
KINGSTREE      RAIN      70  68  94 N6        30.05F
HARTSVILLE     CLOUDY    70  66  88 N5        30.09F
BENNETTSVILLE  FAIR      73  72  94 CALM      30.09F
CONWAY         MOCLDY    70  70 100 NE6       30.05F
GEORGETOWN     RAIN      72  70  94 NE8       30.03F
MARION         MOCLDY    70  68  94 N5        30.07F

....................REST OF NORTH CAROLINA......................

.........EASTERN NC.........

CITY           SKY/WX    TMP DP  RH WIND       PRES   REMARKS
CAPE HATTERAS  PTCLDY    76  72  87 E8        30.13F
JACKSONVILLE   CLOUDY    72  70  93 NE7       30.10F
MOREHEAD CITY  LGT RAIN  76  73  91 SE6       30.10S
KENANSVILLE    CLOUDY    70  67  91 CALM      30.12F
NEW BERN       MOCLDY    73  70  90 NE7       30.12F
ELIZABETH CITY CLOUDY    71  70  96 E6        30.15S

.........CENTRAL NC.........

CITY           SKY/WX    TMP DP  RH WIND       PRES   REMARKS
RALEIGH DURHAM MOCLDY    74  63  68 SE5       30.14S
ROCKY MOUNT    MOCLDY    68  65  90 CALM      30.14S
ROANOKE RAPIDS NOT AVBL
FAYETTEVILLE   MOCLDY    72  65  78 NE6       30.09F
HOFFMAN        CLOUDY    71  67  87 N3        30.10F

.........WESTERN NC.........

CITY           SKY/WX    TMP DP  RH WIND       PRES   REMARKS
CHARLOTTE      LGT RAIN  72  59  63 S3        30.13S
GREENSBORO     CLOUDY    72  58  61 CALM      30.14S
HICKORY        NOT AVBL
BOONE          NOT AVBL
ASHEVILLE      NOT AVBL

.....................REST OF SOUTH CAROLINA.....................

.........EASTERN SC.........

CITY           SKY/WX    TMP DP  RH WIND       PRES   REMARKS
CHARLESTON     CLOUDY    71  69  93 N14       30.00F
BEAUFORT MCAS  LGT RAIN  69  67  93 NW12      30.01F
HILTON HEAD    LGT RAIN  70  70 100 N13G22    30.00S

.........CENTRAL SC.........

CITY           SKY/WX    TMP DP  RH WIND       PRES   REMARKS
COLUMBIA       LGT RAIN  72  68  87 CALM      30.09S
ORANGEBURG     RAIN      69  67  93 N6        30.08F FOG
SUMTER SHAW    CLOUDY    70  68  94 NW10      30.05F

.........WESTERN SC.........

CITY           SKY/WX    TMP DP  RH WIND       PRES   REMARKS
GREENVILLE     NOT AVBL
ROCK HILL      LGT RAIN  71  66  84 CALM      30.14S
ANDERSON       MOCLDY    72  65  78 CALM      30.12S
CLEMSON        NOT AVBL
GREENWOOD      LGT RAIN  70  66  87 CALM      30.13F


...................COASTAL AND OFFSHORE REPORTS..................

................LOCAL PIERS AND NC RESERVE................


STATION/POSITION TIME  SKY/WX   TEMP    WIND        PRES    VSBY
                                AIR SEA DIR/SP/G
                 (UTC)          (F)     (DEG/KT/KT) (MB)    (MI)
JOHNY MRCER PIER 0400            75 78   60/ 12/ 14 1017.5F
NC RESRV MASNBRO NOT AVBL
OCEAN CREST PIER NOT AVBL
SPRINGMAID  PIER 0400            75 76   30/ 16/ 18 1017.1F


................COASTAL AND OFFSHORE BUOYS................


STATION/POSITION TIME  SKY/WX   TEMP    WIND        PRES    VSBY
                                AIR SEA DIR/SP/G
                 (UTC)          (F)     (DEG/KT/KT) (MB)    (MI)
DIMNDSHOAL 41025 0450            78 78  140/ 16/ 17 1019.7F
WVE H/P(F/S)=  4/ 5 SWL H/P/D(F/S/D)=  2/130/ 8

CAPE LOOKOUT     0500            75     100/  9/ 10 1018.9F
ONSLOW BAY 41036 NOT AVBL
ONSLOW BAY 41064 0408            74 75  100/ 10/ 16 1019.8R
ONSLOW BAY 41159 0425               75                N/A
WVE H/P(F/S)=  5/ 7

5SE WRITBC 41038 0408            74 74  100/ 10/ 14 1018.9F
MASNBO INL 41110 0406               74                N/A
WVE H/P(F/S)=  4/ 8

WILM HARBR 41108 0426               74                N/A
WVE H/P(F/S)=  4/ 8

27SE WRITB 41037 0408            74 75   70/ 10/ 14 1018.4R
FRYING PAN 41013 0400            78 77  110/ 16/ 19 1016.6F
SUNST NRSH 41024 0408            75 75   70/ 12/ 16 1016.9F
CAPRS NRSH 41029 0408            75 75   50/ 19/ 25 1016.4F
EDISTO     41004 0450            76 78   70/ 16/ 17 1014.0F
WVE H/P(F/S)=  7/ 8 SWL H/P/D(F/S/D)=  5/ 8



..........OFFSHORE BUOYS BEYOND 100 NM OFFSHORE...........
.....IN A TRIANGLE---HAT TO BERMUDA TO BAHAMAS TO HAT.....


STATION/POSITION TIME  SKY/WX   TEMP    WIND        PRES    VSBY
                                AIR SEA DIR/SP/G
                 (UTC)          (F)     (DEG/KT/KT) (MB)    (MI)
150E HAT   41001 NOT AVBL
W BERMUDA  41048 0450            76 76  140/ 14/ 16 1022.3F
WVE H/P(F/S)=  4/ 7 SWL H/P/D(F/S/D)=  3/130/ 7

ATLANTIC S 41049 0450            77 78   80/ 14/ 16 1022.5F
WVE H/P(F/S)=  4/ 8 SWL H/P/D(F/S/D)=  3/110/ 8

E BAHAMAS  41046 0400            78 81  130/ 12/ 14 1019.5F
NE BAHAMAS 41047 0400            78 80  130/ 12/ 16 1019.4F
120E CANVRL41010 0420            79 79  190/  8/  8 1016.9F

END



USA.gov is the U.S. government's official web portal to all federal, state and local government web resources and services.